TimeCDT,TemperatureF,Dew PointF,Humidity,Sea Level PressureIn,VisibilityMPH,Wind Direction,Wind SpeedMPH,Gust SpeedMPH,PrecipitationIn,Events,Conditions,WindDirDegrees,DateUTC
12:53 AM,52.0,39.9,63,29.84,10.0,North,3.5,-,N/A,,Clear,350,2012-09-25 05:53:00
1:53 AM,48.9,39.0,69,29.85,10.0,North,3.5,-,N/A,,Clear,10,2012-09-25 06:53:00
2:53 AM,46.0,37.0,71,29.86,10.0,North,4.6,-,N/A,,Clear,350,2012-09-25 07:53:00
3:53 AM,43.0,36.0,76,29.87,10.0,North,3.5,-,N/A,,Clear,360,2012-09-25 08:53:00
4:53 AM,39.0,35.1,86,29.88,10.0,North,3.5,-,N/A,,Clear,360,2012-09-25 09:53:00
5:53 AM,39.9,35.1,83,29.88,10.0,North,3.5,-,N/A,,Clear,350,2012-09-25 10:53:00
6:53 AM,37.0,34.0,89,29.90,10.0,North,3.5,-,N/A,,Clear,360,2012-09-25 11:53:00
7:53 AM,39.0,35.1,86,29.92,10.0,North,3.5,-,N/A,,Clear,350,2012-09-25 12:53:00
8:53 AM,48.9,39.0,69,29.94,10.0,NE,4.6,-,N/A,,Clear,50,2012-09-25 13:53:00
9:53 AM,54.0,37.9,55,29.96,10.0,East,5.8,-,N/A,,Clear,90,2012-09-25 14:53:00
10:53 AM,57.9,36.0,44,29.97,10.0,East,8.1,-,N/A,,Clear,90,2012-09-25 15:53:00
11:53 AM,61.0,34.0,36,29.97,10.0,NNE,5.8,-,N/A,,Clear,30,2012-09-25 16:53:00
12:53 PM,62.1,32.0,32,29.96,10.0,Variable,5.8,-,N/A,,Clear,0,2012-09-25 17:53:00
1:53 PM,64.4,32.0,30,29.91,10.0,NNE,8.1,-,N/A,,Clear,20,2012-09-25 18:53:00
2:53 PM,66.0,30.9,27,29.93,10.0,NNW,5.8,-,N/A,,Clear,340,2012-09-25 19:53:00
3:53 PM,66.0,30.9,27,29.92,10.0,North,9.2,-,N/A,,Clear,360,2012-09-25 20:53:00
4:53 PM,66.9,30.0,25,29.92,10.0,NNW,6.9,-,N/A,,Clear,340,2012-09-25 21:53:00
5:53 PM,64.9,30.0,27,29.93,10.0,WNW,6.9,-,N/A,,Clear,300,2012-09-25 22:53:00
6:53 PM,60.1,33.1,36,29.94,10.0,NW,3.5,-,N/A,,Clear,310,2012-09-25 23:53:00
7:53 PM,51.1,35.1,54,29.97,10.0,Calm,Calm,-,N/A,,Clear,0,2012-09-26 00:53:00
8:53 PM,46.0,36.0,68,29.98,10.0,Calm,Calm,-,N/A,,Clear,0,2012-09-26 01:53:00
9:53 PM,44.1,34.0,68,30.00,10.0,Calm,Calm,-,N/A,,Clear,0,2012-09-26 02:53:00
10:53 PM,41.0,33.1,73,30.01,10.0,Calm,Calm,-,N/A,,Clear,0,2012-09-26 03:53:00
11:53 PM,37.4,32.0,81,29.98,10.0,Calm,Calm,-,N/A,,Clear,0,2012-09-26 04:53:00